Terminal Aerodrome Forecast
Issued by NWS Sioux Falls, SD

Home | Current Version | Previous Version | Graphics & Text | Print | Product List | Glossary On
Versions: 1 2 3 4 5 6 7 8 9 10 11 12 13 14 15 16 17 18 19 20 21 22 23 24 25 26 27 28 29 30 31 32 33 34 35 36
000
FTUS43 KFSD 240546
TAFSUX
TAF
KSUX 240546Z 2406/2506 12012G18KT P6SM OVC110
     FM240800 13013G20KT P6SM SCT015 OVC090
      TEMPO 2411/2414 BKN015
     FM241400 12013KT 6SM -RA OVC015
     FM241600 12012KT 5SM -RA BR OVC012
     FM241900 12008KT 3SM -RA BR OVC008
     FM250100 13005KT P6SM SCT012=

USA.gov is the U.S. government's official web portal to all federal, state and local government web resources and services.